This is the latest recevied weather packets stored in our database for station/object KD9ZDW. If no packets are shown the sender has not sent any weather packets the latest 10 day(s).
| Time | Temp. | Humidity | Pressure | Rain* | Wind** | Luminosity | Snow |
|---|---|---|---|---|---|---|---|
| 1777644579 | 3.89° C | 92% | 1016.2 hPa | 0 mm | - | 73 W/m² | - |
| 1777644274 | 3.89° C | 93% | 1016.1 hPa | 0 mm | - | 84 W/m² | - |
| 1777643971 | 3.89° C | 93% | 1015.9 hPa | 0 mm | - | 122 W/m² | - |
| 1777643668 | 3.89° C | 93% | 1016.1 hPa | 0 mm | - | 154 W/m² | - |
| 1777643365 | 3.89° C | 94% | 1015.8 hPa | 0 mm | - | 182 W/m² | - |
| 1777643062 | 3.89° C | 94% | 1015.8 hPa | 0 mm | - | 134 W/m² | - |
| 1777642758 | 3.89° C | 94% | 1016 hPa | 0 mm | - | 100 W/m² | - |
| 1777642456 | 3.89° C | 94% | 1016.2 hPa | 0 mm | - | 72 W/m² | - |
| 1777642152 | 3.33° C | 94% | 1015.8 hPa | 0 mm | - | 75 W/m² | - |
| 1777641849 | 3.33° C | 94% | 1015.9 hPa | 0 mm | - | 58 W/m² | - |
| 1777641543 | 3.89° C | 94% | 1015.9 hPa | 0 mm | - | 61 W/m² | - |
| 1777641238 | 3.33° C | 95% | 1015.6 hPa | 1.27 mm | - | 83 W/m² | - |
| 1777640935 | 3.33° C | 95% | 1015.7 hPa | 0 mm | - | 54 W/m² | - |
| 1777640632 | 3.33° C | 95% | 1015.7 hPa | 1.78 mm | - | 43 W/m² | - |
| 1777640328 | 3.33° C | 95% | 1015.9 hPa | 3.05 mm | - | 39 W/m² | - |
| 1777640025 | 3.33° C | 95% | 1015.7 hPa | 3.05 mm | - | 34 W/m² | - |
| 1777639722 | 3.33° C | 95% | 1015.5 hPa | 3.56 mm | - | 31 W/m² | - |
| 1777639420 | 3.33° C | 94% | 1015.3 hPa | 1.78 mm | - | 29 W/m² | - |
| 1777639119 | 3.33° C | 94% | 1015.6 hPa | 0 mm | - | 16 W/m² | - |
| 1777638818 | 3.33° C | 94% | 1015.5 hPa | 1.27 mm | - | 25 W/m² | - |
| 1777638517 | 2.78° C | 94% | 1015.5 hPa | 1.27 mm | - | 20 W/m² | - |
| 1777638215 | 2.78° C | 94% | 1015.5 hPa | 3.05 mm | - | 19 W/m² | - |
| 1777637911 | 2.78° C | 94% | 1015.5 hPa | 4.83 mm | - | 17 W/m² | - |
| 1777637606 | 3.33° C | 94% | 1015.4 hPa | 3.05 mm | - | 14 W/m² | - |
| 1777637304 | 3.33° C | 94% | 1015.2 hPa | 1.27 mm | - | 7 W/m² | - |
* Rain latest hour (hover to see other rain measurements)
** Current wind speed in m/s (hover to see current wind gust speed)